SCP
2 2 1 1 1 2 2 3 2 2 3 3 2 2 1 2 2 2 3 3 4 4 4 4 4 3 3 2 2 2 2 2 2 2 1 1 1 1 2 2 2 2 2
2 2 2 2 1 2 3 4 3 3 3 3 2 2 2 2 2 3 3 3 4 4 4 4 3 3 2 2 2 2 2 2 2 2 2 2 1 1 1 1 2 2 2
2 2 2 2 2 2 4 6 5 4 3 3 2 3 3 3 3 4 4 4 3 4 4 4 3 2 2 2 2 2 2 2 2 2 2 2 2 2 1 1 1 2 2
2 2 2 2 3 5 7 8 7 5 4 4 4 4 5 4 4 5 5 4 4 4 4 4 3 3 2 2 2 2 2 2 2 2 2 2 2 2 2 2 1 1 1
3 3 3 3 4 7 9 9 8 6 5 4 4 4 4 3 4 5 5 4 4 4 3 3 3 3 3 3 3 3 3 2 2 1 1 2 2 2 2 2 1 1 1
4 4 3 4 6 9 10 10 8 7 6 5 4 3 2 2 3 4 4 4 4 3 3 3 3 3 3 3 3 3 2 2 2 2 2 2 2 2 2 2 2 1 1
5 6 6 6 8 11 12 12 10 8 6 5 3 2 2 2 2 4 4 3 3 3 3 2 2 3 3 3 3 2 2 2 2 2 2 2 2 1 1 2 2 1 1
9 9 9 9 11 14 15 13 10 8 6 4 3 3 2 2 3 3 4 3 3 3 3 2 2 3 3 3 2 2 2 2 2 2 2 2 1 1 2 2 1 1 1
12 12 12 12 14 16 16 13 9 7 5 3 3 3 4 4 5 5 4 3 2 3 3 2 2 3 3 3 3 2 2 2 2 2 2 2 1 1 2 2 1 1 1
13 12 12 13 15 16 14 9 6 5 5 3 3 3 5 7 8 7 5 3 2 2 2 2 2 3 3 3 3 3 3 2 2 2 2 2 1 1 1 1 1 1 1
12 13 13 14 15 14 10 6 4 4 4 3 3 3 4 7 9 7 4 2 2 2 2 3 3 3 3 3 3 3 3 2 2 2 2 2 1 1 1 1 1 1 1
13 14 13 13 12 10 6 5 4 4 4 3 3 3 4 6 7 6 3 2 2 2 2 2 3 2 2 3 3 3 2 2 1 1 1 1 1 1 1 1 1 1 1
12 13 12 10 9 6 5 4 4 4 4 4 3 4 4 5 6 5 4 3 2 2 2 2 2 2 2 2 2 2 2 2 1 1 1 1 1 1 1 1 1 1 1
10 10 10 9 8 6 5 5 4 4 4 4 4 4 5 5 5 5 4 4 3 2 1 1 1 2 2 2 2 2 3 2 1 1 1 1 1 1 1 1 1 1 1
9 11 11 10 9 8 7 6 5 5 4 4 5 5 5 4 4 4 4 5 4 3 2 2 1 2 2 2 2 3 3 2 1 1 1 0 0 1 1 1 1 1 1
10 12 13 12 10 9 7 6 5 5 5 6 6 5 5 4 4 4 5 6 6 5 3 2 2 2 2 2 2 3 3 2 2 1 1 0 0 0 0 0 0 1 1
11 13 14 13 12 9 7 5 4 4 5 7 7 5 4 4 4 5 5 6 7 6 5 4 3 3 3 3 3 3 3 2 2 1 1 1 0 0 0 0 0 0 0
11 12 13 14 12 9 6 5 4 5 6 7 7 6 5 5 5 5 5 6 7 8 7 6 6 5 4 3 3 3 2 2 2 1 1 1 1 0 0 0 0 0 0
13 11 12 13 11 8 6 5 5 5 6 6 6 6 6 6 6 6 6 7 7 8 8 8 7 5 4 3 3 3 3 3 3 2 1 1 1 0 0 0 0 0 0
13 11 10 11 10 7 5 5 5 6 6 6 6 7 7 7 7 6 7 7 7 7 7 7 5 4 3 3 3 4 4 5 4 3 2 1 1 1 0 0 0 0 0
13 11 9 8 8 7 5 5 6 6 5 5 6 6 6 6 6 5 6 6 6 6 5 4 4 3 2 3 4 5 5 5 4 4 3 2 2 1 1 1 1 0 0
13 12 9 8 7 6 5 4 5 5 5 6 6 6 5 4 4 4 4 4 5 5 4 3 3 3 3 3 4 4 4 4 4 4 4 3 2 2 2 2 1 1 0
13 11 9 9 8 7 4 3 3 3 4 5 6 6 5 4 3 4 4 4 4 4 3 2 2 2 3 3 3 3 3 3 4 4 4 4 3 3 2 2 1 1 0
11 10 9 9 9 7 4 2 2 2 3 4 6 6 6 5 4 4 5 5 4 3 2 1 1 2 2 2 2 2 2 2 2 3 4 4 4 4 3 2 1 0 0
10 9 9 9 9 7 4 2 2 3 3 4 5 6 6 5 5 5 6 6 6 4 2 1 1 1 1 1 1 1 1 1 1 1 2 3 3 3 3 3 2 1 0
8 8 8 9 8 6 3 2 2 3 4 4 5 6 6 5 5 5 6 7 7 5 3 2 1 1 0 0 0 0 0 1 0 1 1 2 3 3 3 3 3 2 1
Wind_Speed
1 1 0 1 1 1 2 1 1 2 2 2 2 2 2 2 2 2 2 7 8 8 8 9 9 8 8 8 8 9 10 11 11 11 11 12 12 11 11 11 11 10 10
1 1 1 1 1 0 1 0 1 1 1 1 1 2 2 2 2 2 2 5 8 9 9 9 9 8 8 9 9 9 9 10 10 10 11 11 11 11 11 11 11 10 10
1 1 1 1 1 1 1 1 1 1 1 2 2 3 2 2 2 2 2 2 4 8 10 10 9 9 9 9 10 10 10 10 10 10 10 10 11 11 11 11 11 10 10
1 1 1 0 1 1 1 1 1 1 1 1 2 3 2 2 3 3 3 3 3 3 7 11 10 10 9 9 10 10 10 9 9 9 10 10 10 10 10 11 11 11 10
1 1 0 0 1 1 1 1 1 1 2 2 3 3 3 3 3 3 3 3 3 4 4 8 11 10 10 9 9 9 9 9 9 9 9 10 10 10 10 11 12 12 12
1 1 1 1 1 1 0 0 1 2 2 2 3 2 3 3 3 3 3 2 2 3 3 4 5 7 9 8 7 7 8 8 8 8 9 9 10 10 10 11 12 12 12
1 0 1 1 1 1 0 1 1 2 2 1 2 2 2 2 3 2 2 2 2 2 2 3 3 2 3 7 8 7 7 8 8 8 8 9 9 9 9 10 11 11 12
0 1 1 1 1 1 1 1 1 2 2 1 1 1 1 1 1 2 2 2 2 2 2 2 2 2 2 3 4 7 7 6 7 7 8 8 8 9 9 10 10 11 12
1 1 0 1 1 1 1 1 2 2 2 2 1 1 1 1 2 1 1 1 2 1 1 1 2 3 3 2 3 5 6 6 6 6 7 7 7 7 8 9 10 10 11
1 1 0 1 2 1 1 2 1 2 2 2 1 1 1 1 1 2 2 1 1 1 1 1 1 2 2 2 3 4 6 5 5 6 6 6 6 7 8 9 10 10 10
1 1 1 1 1 1 1 2 2 2 2 2 2 1 1 1 2 1 2 2 1 1 1 1 1 1 2 2 2 4 7 6 4 5 5 5 6 6 7 8 9 10 10
1 1 1 1 1 1 1 1 2 2 1 2 2 2 2 1 1 1 2 3 2 1 1 1 1 1 1 1 2 5 7 7 6 5 4 4 4 5 6 7 8 9 9
1 1 1 0 1 1 1 2 2 2 2 2 2 2 2 2 2 2 2 2 3 2 1 1 1 0 1 1 2 4 6 6 5 5 4 3 2 3 4 5 7 7 7
0 1 1 0 1 1 2 2 2 2 1 2 3 2 2 2 2 2 2 2 3 2 1 2 1 0 0 1 2 3 2 5 6 5 5 4 3 3 3 3 4 4 5
1 1 0 0 0 1 1 2 2 2 2 2 2 2 2 2 2 2 2 1 2 3 2 2 2 1 0 1 3 2 2 4 6 6 6 6 5 4 4 4 3 4 4
1 1 1 1 1 1 1 2 2 2 1 1 1 1 2 2 2 2 2 2 1 1 2 2 2 2 2 1 2 1 1 3 6 7 7 7 6 5 4 4 4 4 3
1 1 1 1 2 1 1 2 3 3 2 2 2 2 2 2 2 2 2 2 1 1 2 3 2 3 3 2 1 1 2 2 3 6 7 7 7 6 6 5 4 3 3
1 1 1 2 2 1 2 2 3 3 3 2 2 2 2 2 2 2 2 2 2 1 2 3 3 3 3 2 2 3 3 3 2 5 7 7 7 6 6 6 5 4 3
1 1 1 2 2 2 2 2 3 3 2 2 2 2 2 2 2 2 2 3 2 2 1 2 3 2 2 3 2 3 3 2 3 2 5 6 6 7 7 6 6 5 4
1 1 2 2 2 2 2 2 3 3 2 2 2 2 2 2 2 2 2 2 2 2 2 2 2 2 2 3 2 2 3 2 2 3 1 2 4 5 7 6 6 6 4
1 1 2 2 2 2 2 2 3 3 2 3 2 2 2 1 1 2 3 2 2 2 2 2 2 2 2 2 2 2 3 2 3 2 1 2 1 2 3 5 5 6 5
1 1 1 1 2 2 3 3 2 3 2 2 2 2 2 1 1 1 2 2 2 3 2 2 2 2 3 3 2 3 3 3 2 1 2 3 2 1 2 2 5 6 6
1 1 2 1 1 2 3 3 4 4 3 2 2 2 3 2 1 1 2 3 3 4 3 3 4 4 4 3 3 4 4 3 4 3 2 3 2 1 2 1 4 6 6
1 2 2 2 1 2 3 3 4 3 3 2 2 1 1 1 2 2 2 2 3 2 3 4 3 3 3 2 2 3 4 4 4 3 2 2 2 2 2 1 2 4 5
2 2 2 2 1 1 2 2 3 3 3 3 2 1 0 0 2 2 2 2 3 3 4 4 4 4 4 4 3 2 3 3 3 3 1 1 1 2 2 2 2 4 6
2 2 1 1 1 1 1 2 3 3 3 3 2 1 0 1 1 1 2 2 3 3 4 4 4 4 4 4 5 3 3 3 3 2 1 1 1 2 2 2 1 2 3
Wind_Direction
126 134 247 281 244 192 183 215 228 217 220 224 233 235 250 252 259 229 173 184 189 197 204 207 212 218 225 228 232 232 232 233 231 226 226 228 228 230 231 232 233 233 231
125 161 198 254 272 212 177 235 251 220 212 218 245 259 249 236 250 251 185 183 193 198 203 209 215 221 229 232 232 233 235 236 231 224 227 228 228 229 232 235 235 231 229
125 220 205 226 271 248 184 176 256 241 224 223 227 240 232 212 226 225 221 198 197 204 204 207 212 217 225 231 235 237 236 236 232 227 228 230 230 229 230 232 231 230 229
184 236 213 218 272 269 232 198 199 259 261 242 235 238 220 202 208 221 223 214 197 195 202 206 210 213 219 226 232 234 233 235 233 231 231 232 233 231 228 229 229 229 229
189 242 242 342 280 268 274 287 80 256 263 257 256 229 219 204 204 217 227 214 193 192 191 200 209 213 217 221 225 227 229 231 232 233 234 235 233 232 228 227 228 228 228
195 289 253 292 297 314 330 354 314 266 253 257 276 269 230 205 198 205 224 217 194 193 192 192 196 210 211 211 214 217 223 227 228 232 235 239 236 235 231 230 229 229 230
123 202 303 290 269 284 308 317 312 292 276 267 293 298 258 218 200 187 202 206 181 181 182 176 169 181 189 206 214 215 223 225 228 234 237 239 240 238 235 234 231 230 231
323 196 232 282 292 289 309 296 296 295 297 305 302 310 308 299 298 216 182 195 186 184 187 161 158 174 188 180 192 209 219 223 227 234 240 240 241 241 240 239 235 233 233
163 303 96 313 310 282 284 285 297 297 297 299 332 342 316 317 317 283 232 197 170 179 192 180 184 179 186 174 181 196 204 213 222 230 235 240 243 244 244 243 242 239 236
161 226 168 315 306 320 316 291 328 302 289 291 291 247 242 289 289 302 296 279 215 198 207 233 201 184 181 174 167 158 177 197 215 223 229 236 245 245 247 248 247 246 242
182 229 178 232 270 290 300 327 322 307 297 303 302 302 303 278 261 268 293 294 290 244 211 206 207 187 195 181 179 164 168 184 203 219 228 235 241 245 249 251 250 251 251
170 188 187 216 252 279 289 295 293 291 308 320 313 303 296 297 296 279 281 289 286 274 247 223 219 217 188 168 177 164 172 183 195 214 227 239 248 251 256 258 257 257 259
149 186 182 176 257 273 276 287 281 301 307 303 295 298 305 307 306 299 290 294 298 295 287 247 206 242 257 134 142 158 178 183 189 208 220 229 250 265 275 277 267 263 265
21 110 117 197 259 284 300 303 291 291 293 290 295 307 295 303 311 306 295 303 306 304 308 303 302 162 6 119 126 163 180 181 191 206 211 216 224 237 256 271 281 273 274
359 61 176 228 255 277 320 324 313 315 320 304 305 312 310 308 304 296 290 283 278 297 306 317 314 314 44 89 128 178 203 198 207 212 210 212 216 224 236 248 252 259 269
338 350 339 329 327 327 331 308 300 301 297 301 293 305 305 311 309 307 306 296 285 277 289 311 313 333 331 313 133 181 248 215 215 212 208 208 217 223 228 235 238 243 250
301 312 309 311 305 297 288 278 289 296 287 287 297 301 300 325 332 319 315 314 305 282 273 291 308 320 316 313 309 266 260 234 222 215 212 211 214 218 222 227 229 231 238
258 268 261 272 279 285 287 284 286 292 297 295 296 309 312 317 318 309 320 312 311 280 255 277 286 287 291 293 285 276 285 275 249 217 208 211 210 216 223 224 224 225 221
254 266 271 272 280 287 283 287 293 295 303 298 295 299 298 305 301 306 309 305 297 299 275 264 274 280 287 299 304 295 292 287 288 249 210 213 214 219 222 219 215 213 215
260 275 289 280 276 284 291 302 304 294 298 293 286 279 278 278 288 297 293 294 299 305 297 284 277 286 296 303 306 306 306 306 298 294 287 229 220 222 221 215 205 201 204
270 288 291 300 295 286 321 326 303 289 290 288 286 277 273 271 294 293 308 317 312 305 300 297 294 305 311 319 317 307 301 298 298 301 307 274 237 226 218 209 199 196 199
274 287 288 300 306 314 350 352 332 302 290 285 292 293 276 267 248 258 287 292 284 276 286 289 293 294 301 305 316 311 313 310 298 299 309 294 289 263 231 196 180 185 196
260 256 277 278 295 339 5 359 332 306 297 289 289 295 297 318 25 311 270 271 275 282 276 264 271 279 285 298 305 305 300 297 285 282 287 282 288 306 293 223 174 188 199
258 262 266 274 277 339 1 343 321 286 285 284 274 265 290 345 328 326 286 286 279 282 268 260 267 279 289 299 293 288 286 285 276 269 263 276 282 299 303 262 206 205 208
260 270 280 283 295 338 354 334 318 289 290 288 276 271 300 306 340 344 297 286 284 284 277 288 280 267 270 271 271 294 296 293 292 293 299 281 303 320 297 272 249 222 219
267 271 264 270 269 307 333 335 320 296 296 292 275 234 175 291 277 258 265 279 288 297 306 298 286 271 259 254 243 231 260 285 297 298 339 349 312 324 304 286 289 262 231